Wind_Speed
4 4 13 13 9 5 5 4 7 4 5 6 6 9 8 8 7 9 9 9 9 10 17 16 18 30 32 33 32 31 30 34 35 35 37 36 38 34 38 38 37 36 35 35
3 18 5 7 8 8 11 10 15 6 4 4 5 11 9 8 11 11 13 13 10 8 8 17 25 19 33 35 35 36 35 34 37 34 30 29 27 30 35 37 38 37 38 38
12 5 16 10 10 8 10 16 7 10 5 3 4 13 13 7 14 14 14 14 13 14 10 10 15 22 21 33 37 38 37 37 36 36 28 27 25 26 28 32 38 42 40 40
11 8 7 9 17 11 15 9 6 5 4 7 4 11 17 6 10 8 8 9 10 10 11 7 9 12 9 19 31 34 34 35 37 33 31 30 30 27 32 35 34 35 41 44
9 8 14 17 15 9 10 6 7 7 6 2 14 4 16 3 4 6 10 13 8 5 2 6 7 8 12 12 7 12 26 30 32 34 36 31 30 31 30 30 30 35 37 42
8 1 4 6 8 15 3 1 4 4 2 9 20 8 19 15 16 7 8 5 8 9 7 7 14 17 18 17 15 12 11 15 26 33 36 36 33 32 30 29 28 31 32 34
5 4 2 2 4 3 3 4 2 4 5 10 8 9 21 5 5 7 6 8 7 8 8 8 9 14 14 15 16 16 17 18 17 17 26 35 38 34 32 33 30 29 26 30
13 9 10 6 9 5 9 11 4 8 6 4 8 10 9 9 16 10 6 8 8 8 7 7 7 9 10 14 19 18 18 21 21 19 21 23 30 33 33 32 33 32 31 32
13 9 4 6 5 9 4 9 9 8 3 2 4 7 7 7 3 7 9 9 8 7 6 7 8 14 19 22 25 25 22 22 22 23 22 22 24 25 31 33 31 33 34 35
6 3 4 6 4 3 8 5 3 4 4 8 5 5 5 5 8 9 9 9 8 7 8 8 11 19 25 26 28 28 28 28 26 24 24 24 23 24 25 29 35 35 35 34
6 4 4 10 12 14 7 5 4 3 2 2 1 5 7 9 11 12 8 8 8 8 8 8 13 24 25 26 28 28 29 29 30 31 27 28 27 25 25 26 25 33 37 38
11 5 6 4 1 1 14 11 11 5 4 3 2 4 7 11 10 9 8 8 7 10 9 7 15 19 22 22 24 26 29 29 31 32 32 30 29 29 26 25 25 25 26 28
13 5 5 4 4 4 5 4 5 2 3 7 3 4 3 3 6 5 8 7 11 9 9 8 14 16 19 22 22 26 28 30 30 34 34 32 30 32 29 26 24 23 23 25
20 5 6 13 6 8 7 9 12 9 3 7 14 3 2 5 6 5 3 12 9 9 9 8 8 13 17 22 25 26 28 28 32 35 32 31 31 32 31 29 26 23 20 22
13 13 9 5 4 6 5 13 18 16 15 10 11 13 12 2 8 7 9 8 10 11 12 12 11 14 20 24 27 30 30 32 31 31 31 31 33 33 31 31 29 24 22 21
9 4 6 1 5 4 4 9 11 16 14 11 8 11 5 11 8 7 8 8 9 10 9 9 10 17 20 23 27 29 31 35 32 28 28 30 33 35 32 30 28 25 23 22
10 4 3 4 5 6 6 9 14 10 10 16 11 14 1 8 10 8 9 11 11 11 12 13 13 18 20 25 26 26 33 36 31 29 30 28 32 34 35 35 30 27 25 20
9 9 3 4 4 9 4 5 11 15 3 2 5 9 8 7 12 11 12 10 11 13 15 15 20 24 24 28 23 28 30 30 29 30 30 30 34 34 34 32 30 26 21 19
10 5 3 5 4 4 3 2 6 8 4 4 4 5 4 2 6 5 11 11 11 11 15 17 20 23 25 25 28 31 29 27 26 28 30 34 33 34 33 31 29 27 25 21
7 8 5 2 4 7 6 2 5 2 2 3 6 6 5 4 4 2 12 11 13 16 17 20 22 23 25 27 30 28 26 28 26 30 34 34 34 33 32 31 31 31 26 24
9 6 10 4 2 5 2 6 7 6 3 6 7 6 6 3 2 8 10 13 16 18 20 23 23 23 24 29 30 29 28 27 31 33 32 34 35 33 32 32 31 32 28 23
5 6 6 3 3 7 8 3 4 5 6 7 8 8 6 6 9 12 13 14 19 20 22 24 24 25 27 26 28 29 29 33 35 34 35 35 36 35 32 29 31 30 27 23
3 4 5 2 2 5 10 12 9 7 7 4 6 6 6 7 8 10 11 12 17 21 23 23 25 26 25 25 27 29 32 34 35 35 37 37 35 34 31 28 26 24 23 20
1 3 4 5 4 6 9 10 11 11 10 7 6 5 5 6 8 9 10 14 16 19 22 24 25 24 25 26 29 29 32 33 34 34 34 35 32 32 28 25 24 21 18 17
1 3 6 6 9 9 6 8 7 8 8 7 6 6 6 7 8 10 10 15 17 19 20 21 22 23 26 30 31 33 33 34 32 32 32 32 29 29 28 24 18 16 17 18
4 1 3 3 5 3 7 7 5 6 6 5 5 6 8 8 7 11 11 14 16 18 20 22 24 24 27 31 32 35 36 35 32 30 29 29 29 28 25 16 3 11 12 11
Wind_Direction
208 191 219 217 208 216 256 256 256 309 288 181 236 267 273 278 299 295 278 261 256 257 271 268 241 226 219 220 218 221 226 232 227 224 222 223 224 227 229 229 230 230 231 234
155 234 188 194 215 221 246 263 269 286 255 224 260 274 272 265 267 258 265 261 252 248 258 267 271 240 227 222 220 223 222 228 228 223 225 229 230 229 231 230 233 233 233 234
208 182 198 191 225 225 226 232 242 243 296 240 309 277 268 244 251 255 260 255 257 242 241 247 258 264 250 228 225 224 225 225 228 228 225 230 234 236 234 233 234 235 234 235
219 221 216 210 228 204 240 215 233 252 277 262 136 285 276 273 256 260 266 265 266 241 243 246 274 288 285 247 239 233 232 230 230 230 222 221 223 226 228 233 233 232 234 235
211 174 203 225 224 188 252 263 222 220 232 299 251 273 279 240 230 279 284 272 249 285 150 94 63 48 49 35 17 271 257 253 248 239 232 226 227 234 235 234 234 232 232 235
206 125 168 212 209 206 217 28 33 7 142 248 249 190 268 260 250 230 271 351 122 106 79 62 56 41 26 14 13 2 333 286 265 253 246 235 233 233 234 234 231 232 231 233
159 195 157 128 177 142 131 108 246 225 212 248 176 187 237 258 226 193 244 140 109 102 87 60 38 18 12 11 3 358 348 331 318 298 265 250 242 241 240 236 234 235 233 228
206 217 175 168 203 196 206 198 224 220 213 267 161 222 239 230 242 254 133 104 97 98 91 79 52 22 2 354 355 346 342 346 342 329 305 294 274 257 249 245 240 240 239 237
197 220 95 183 148 168 182 206 242 268 127 319 232 276 299 232 83 107 104 96 94 93 82 58 21 17 21 23 11 7 356 335 340 344 331 315 301 293 261 251 247 243 242 240
201 190 183 169 105 244 204 158 154 205 240 249 275 271 228 127 128 116 112 119 118 86 58 50 41 40 29 20 12 10 5 359 347 332 340 333 319 307 296 276 252 246 247 247
167 117 187 136 201 181 176 180 159 132 247 202 260 288 286 161 144 138 135 123 111 103 77 61 46 31 23 17 10 4 2 358 353 352 333 335 333 321 307 296 286 264 255 253
202 139 184 184 342 111 204 211 188 186 181 207 216 241 292 153 150 133 140 120 104 76 76 59 48 31 19 9 4 359 354 353 354 350 345 335 330 333 321 309 295 286 270 264
178 176 151 168 230 172 189 187 175 91 122 213 222 263 254 185 114 101 113 115 75 76 55 41 36 26 13 4 358 354 352 347 348 345 343 336 334 332 330 318 311 295 284 273
163 153 206 221 212 134 186 174 207 186 168 216 217 231 235 196 99 74 63 81 78 66 53 38 27 18 9 0 353 350 349 350 343 342 340 337 333 333 326 325 313 304 291 279
159 205 182 239 143 149 176 188 193 206 214 199 225 207 245 104 63 76 57 48 53 44 42 23 11 3 3 356 351 347 344 343 343 340 340 337 335 333 330 323 318 306 291 285
179 197 151 128 145 152 204 217 207 215 231 256 250 266 253 112 144 89 69 67 38 30 29 9 3 2 359 352 345 340 338 338 338 338 338 335 339 337 333 326 319 305 296 285
164 122 135 206 142 102 300 201 200 205 206 222 231 248 89 107 98 68 51 34 20 10 5 8 2 353 345 345 340 341 334 331 332 334 334 334 338 333 330 327 320 307 300 295
151 155 122 133 85 227 251 205 187 204 98 285 6 66 65 100 102 83 48 33 18 4 358 354 349 343 343 340 342 336 330 328 327 328 329 332 333 329 325 323 322 311 298 292
172 143 121 161 187 308 334 195 147 169 202 27 99 49 33 69 145 89 33 27 13 1 347 341 341 335 334 336 336 332 329 327 326 326 325 326 326 322 320 316 313 308 301 287
143 161 168 126 167 208 219 131 12 126 248 38 80 57 1 325 178 107 2 8 1 352 345 342 338 335 334 335 332 330 328 324 322 324 318 317 317 314 311 309 306 304 296 284
159 176 194 161 178 282 314 323 310 123 210 89 80 65 34 70 19 323 347 349 350 341 344 341 342 336 336 332 333 329 325 320 321 317 314 314 313 309 306 305 306 302 292 279
163 145 191 144 153 254 5 321 184 114 71 91 70 45 29 359 339 343 343 342 339 342 344 345 341 337 333 334 334 327 323 322 320 319 315 313 312 310 304 302 305 302 289 270
167 173 158 131 163 84 43 90 65 80 104 76 66 33 7 338 342 335 333 331 344 343 343 342 336 331 333 334 333 323 320 322 321 317 315 315 312 307 302 299 298 294 285 262
12 4 94 129 131 122 104 79 74 72 84 76 54 31 3 344 338 340 335 343 343 346 345 341 339 337 333 334 330 324 323 324 321 318 315 314 310 305 301 299 296 290 275 258
238 22 114 88 115 109 91 84 85 84 71 59 44 28 17 358 358 349 342 345 344 343 342 343 341 337 333 334 332 334 332 332 324 320 317 315 314 311 304 297 290 288 281 269
355 86 170 181 124 91 118 110 76 86 65 49 34 29 25 18 360 349 346 346 345 343 343 344 343 342 339 339 339 339 340 340 330 323 324 320 316 315 306 293 23 53 45 37
Height
837 842 835 837 841 840 841 845 847 836 824 826 830 828 823 816 814 815 812 807 802 799 792 791 793 795 795 796 795 797 799 802 806 809 810 809 809 812 813 814 815 818 819 821
840 831 835 836 838 841 842 845 841 836 823 826 828 828 821 816 809 808 804 801 798 793 790 787 787 789 791 790 789 792 791 794 799 802 805 808 807 807 807 809 809 810 812 813
831 822 826 833 837 839 840 840 841 842 831 825 830 826 817 810 801 797 795 792 789 787 786 783 782 782 783 784 785 785 785 787 790 795 798 801 804 804 803 803 803 802 804 805
827 820 826 832 831 835 838 828 832 836 841 846 831 834 808 807 800 793 793 789 784 780 777 778 779 780 781 780 781 783 785 785 785 788 791 792 793 794 793 793 794 795 796 798
818 820 824 827 824 829 829 826 830 832 838 843 832 844 800 800 801 798 790 780 778 778 778 780 780 781 781 781 781 782 785 784 784 783 784 785 786 786 786 786 787 787 787 789
816 820 818 818 817 820 821 824 832 839 843 844 815 842 803 794 789 791 784 777 775 778 781 781 780 781 781 781 781 782 783 782 781 780 779 779 778 778 778 779 779 779 780 782
819 821 819 818 819 820 823 835 842 841 842 825 815 832 792 782 783 779 775 779 777 779 780 781 781 784 785 784 783 782 781 779 778 777 776 774 773 772 771 771 772 773 773 773
809 814 817 818 818 821 823 825 832 827 824 826 819 818 790 777 771 771 775 778 780 781 780 781 784 786 787 786 785 781 780 778 775 773 772 770 769 767 766 765 764 765 765 765
803 805 807 808 813 813 823 824 822 828 845 837 820 798 781 774 776 777 782 780 782 781 782 783 785 786 789 789 787 783 779 776 774 771 768 766 765 763 760 758 757 757 757 757
796 808 806 812 811 814 816 818 827 828 827 821 809 802 789 781 782 781 781 782 779 780 784 787 788 789 790 791 789 784 781 776 773 769 766 761 759 757 755 753 750 749 749 749
786 792 806 807 803 800 813 812 819 824 826 815 817 810 779 776 775 780 781 779 780 782 788 791 792 793 794 792 789 788 783 778 772 768 764 760 754 752 749 747 745 743 742 742
781 787 797 797 804 800 795 799 806 811 819 824 819 804 780 775 773 777 781 779 779 786 792 794 794 796 796 795 791 789 784 779 773 769 763 759 754 749 745 742 739 738 736 736
770 787 793 800 809 802 799 801 799 804 810 817 817 801 779 777 777 779 782 782 789 793 796 798 796 798 799 798 795 790 786 781 774 768 762 756 751 747 743 739 736 733 731 730
757 780 774 767 765 784 793 796 801 802 807 799 791 787 781 778 782 782 782 792 797 799 800 803 803 802 801 798 796 792 786 782 776 769 762 756 751 746 741 738 734 731 728 726
756 770 773 776 769 770 776 780 787 791 787 791 777 784 773 780 791 796 797 801 802 803 801 806 806 805 800 798 794 790 787 782 776 769 762 756 750 745 739 735 731 728 725 723
754 773 765 780 772 772 776 777 778 777 779 783 781 783 780 787 792 797 805 808 812 811 811 812 810 806 802 801 797 792 788 781 776 770 764 758 751 744 739 733 729 726 723 720
750 765 772 781 783 782 796 777 774 773 772 774 781 767 781 794 804 813 817 815 814 814 813 809 810 810 806 802 798 793 789 783 776 769 763 758 751 743 737 730 725 721 718 715
751 765 778 781 792 780 759 759 759 765 785 784 782 796 800 802 812 820 824 821 819 818 813 812 812 810 805 800 796 793 789 783 777 769 762 755 748 742 735 729 722 718 715 713
743 760 776 777 794 783 765 760 765 767 784 806 801 808 809 809 813 824 827 825 824 822 821 820 818 813 807 802 798 791 785 782 777 770 761 754 747 740 734 727 721 716 712 709
747 749 760 793 787 796 767 763 771 759 780 811 809 817 816 806 802 815 825 825 825 825 823 820 816 811 805 802 797 791 785 781 775 769 761 753 746 738 730 725 718 713 709 705
749 757 761 782 804 786 771 782 778 784 787 817 819 823 822 819 828 829 827 826 827 825 823 819 814 811 807 802 795 789 784 780 774 767 758 748 741 734 727 719 714 710 705 701
741 753 756 776 779 778 805 790 766 805 819 820 823 826 827 829 828 828 828 827 825 823 819 817 814 811 808 803 796 789 781 775 770 761 752 742 735 728 721 715 708 704 701 698
758 752 760 769 782 811 814 814 816 813 819 827 828 832 833 834 835 835 833 830 827 825 822 820 817 812 808 803 798 789 782 773 765 757 746 736 729 723 716 710 705 701 698 695
766 774 775 786 812 817 821 823 823 826 829 833 835 836 837 837 836 835 832 830 828 826 823 820 815 811 806 801 795 789 780 773 763 752 742 733 726 717 712 706 701 697 694 691
784 779 787 803 815 821 826 827 828 831 835 836 838 839 839 837 836 835 833 831 830 828 824 820 815 810 804 799 792 785 777 768 759 750 741 731 723 714 707 701 697 693 690 689
807 792 780 778 802 807 820 832 834 835 837 839 839 839 839 839 838 837 835 833 830 827 823 820 816 810 804 797 789 783 775 766 758 749 740 731 722 713 705 699 696 692 689 687